Solidarnosc (vanuatu) — YJZC9 — position and weather

sailwx.info

Track history (hours):
 
Tides and Currents Weather Stations Pressure Air Temp Water Temp Dewpoint Dewpoint Depression Visibility Wind Speed Wind Dir Waves Ship Positions

Solidarnosc (vanuatu)

Last reported at 2014-Oct-27 10:33 UTC. Time now 2014-Oct-30 16:35 UTC.
Position N 34°59' W 013°38'.

Length 229 m; beam 32 m.

Type: Ship. MMSI: 576005000.

Date/timePositionNaut miles runAvg speedWind from/ knotsBaromVisibWave heightAir tempDewpointWater temp
2014-Oct-27 10:33N 34°59' W 013°38'1313.2
2014-Oct-27 09:33N 35°00' W 013°22'1313.4
2014-Oct-27 08:33N 35°03' W 013°06'1313.0
2014-Oct-27 07:33N 35°03' W 012°50'1413.6
2014-Oct-27 06:33N 35°05' W 012°34'2713.3
2014-Oct-27 04:32N 35°09' W 012°01'5713.1
2014-Oct-27 00:12N 35°19' W 010°53'913.5
2014-Oct-26 23:31N 35°21' W 010°42'1313.6
2014-Oct-26 22:33N 35°22' W 010°25'23913.3
2014-Oct-26 04:33N 35°59' W 005°34'1111.3
2014-Oct-26 03:33N 36°05' W 005°23'3 1.1
2014-Oct-26 00:28N 36°08' W 005°23'0 0.1
2014-Oct-25 23:31N 36°08' W 005°23'0 0.1
2014-Oct-25 22:28N 36°08' W 005°23'0 0.2
2014-Oct-25 21:31N 36°08' W 005°23'0 0.1
2014-Oct-25 20:28N 36°08' W 005°23'0 0.0
2014-Oct-25 19:28N 36°08' W 005°23'0 0.0
2014-Oct-25 18:28N 36°08' W 005°23'0 0.1
2014-Oct-25 16:28N 36°08' W 005°23'2 2.1
2014-Oct-25 15:32N 36°06' W 005°22'2 2.0
2014-Oct-25 14:33N 36°05' W 005°21'9 9.4
2014-Oct-25 13:33N 36°06' W 005°09'18513.1
2014-Oct-24 23:29N 36°57' W 001°27'2814.4
2014-Oct-24 21:32N 37°15' W 001°01'1514.8
2014-Oct-24 20:33N 37°25' W 000°47'1414.4
2014-Oct-24 19:33N 37°34' W 000°34'1414.4
2014-Oct-24 18:33N 37°46' W 000°24'1414.3
2014-Oct-24 17:33N 37°58' W 000°14'1514.4
2014-Oct-24 16:32N 38°10' W 000°04'1414.2
2014-Oct-24 15:33N 38°22' E 000°06'1414.2
2014-Oct-24 14:33N 38°34' E 000°16'1514.6
2014-Oct-24 13:33N 38°46' E 000°27'1414.4
2014-Oct-24 12:33N 38°58' E 000°37'1414.0
2014-Oct-24 11:32N 39°09' E 000°48'4414.1
2014-Oct-24 08:24N 39°45' E 001°21'13613.8
2014-Oct-23 22:31N 41°36' E 003°07'1714.4
2014-Oct-23 21:19N 41°50' E 003°20'1514.5
2014-Oct-23 20:16N 42°04' E 003°26'1314.8
2014-Oct-23 19:25N 42°16' E 003°31'1314.4
2014-Oct-23 18:31N 42°28' E 003°37'1413.8
2014-Oct-23 17:30N 42°42' E 003°43'1413.6
2014-Oct-23 16:30N 42°55' E 003°48'1514.0
2014-Oct-23 15:27N 43°10' E 003°50'1312.8
2014-Oct-23 14:28N 43°22' E 003°47'4 3.9
2014-Oct-23 13:33N 43°24' E 003°43'0 0.0
2014-Oct-22 18:23N 43°24' E 003°43'0 0.0
2014-Oct-22 17:25N 43°24' E 003°43'0 0.0
2014-Oct-22 16:26N 43°24' E 003°43'0 0.0
2014-Oct-22 15:25N 43°24' E 003°43'0 0.0
2014-Oct-22 13:26N 43°24' E 003°43'0 0.0
2014-Oct-22 12:20N 43°24' E 003°43'0 0.0
2014-Oct-22 08:20N 43°24' E 003°43'0 0.0
2014-Oct-21 12:22N 43°24' E 003°43'0 0.0
2014-Oct-20 12:25N 43°24' E 003°43'0 0.0
2014-Oct-20 09:10N 43°24' E 003°43'0 0.0
2014-Oct-20 08:31N 43°24' E 003°43'0 0.0
2014-Oct-20 07:04N 43°24' E 003°43'0 0.0
2014-Oct-19 13:26N 43°24' E 003°43'0 0.0
2014-Oct-18 05:11N 43°24' E 003°43'0 0.0
2014-Oct-18 04:32N 43°24' E 003°43'0 0.0
2014-Oct-17 23:29N 43°24' E 003°43'0 0.0
2014-Oct-17 22:23N 43°24' E 003°43'0 0.0
2014-Oct-17 21:32N 43°24' E 003°43'0 0.0
2014-Oct-17 20:29N 43°24' E 003°43'0 0.0
2014-Oct-17 19:23N 43°24' E 003°43'0 0.0
2014-Oct-17 15:21N 43°24' E 003°43'0 0.0
2014-Oct-17 13:26N 43°24' E 003°43'0 0.0
2014-Oct-17 12:17N 43°24' E 003°43'0 0.0
2014-Oct-17 11:23N 43°24' E 003°43'  
Track history (hours):
 
Tides and Currents Weather Stations Pressure Air Temp Water Temp Dewpoint Dewpoint Depression Visibility Wind Speed Wind Dir Waves Ship Positions

Solidarnosc (vanuatu)

Last reported at 2014-Oct-27 10:33 UTC. Time now 2014-Oct-30 16:35 UTC.
Position N 34°59' W 013°38'.

Length 229 m; beam 32 m.

Type: Ship. MMSI: 576005000.

Date/timePositionNaut miles runAvg speedWind from/ knotsBaromVisibWave heightAir tempDewpointWater temp
2014-Oct-27 10:33N 34°59' W 013°38'1313.2
2014-Oct-27 09:33N 35°00' W 013°22'1313.4
2014-Oct-27 08:33N 35°03' W 013°06'1313.0
2014-Oct-27 07:33N 35°03' W 012°50'1413.6
2014-Oct-27 06:33N 35°05' W 012°34'2713.3
2014-Oct-27 04:32N 35°09' W 012°01'5713.1
2014-Oct-27 00:12N 35°19' W 010°53'913.5
2014-Oct-26 23:31N 35°21' W 010°42'1313.6
2014-Oct-26 22:33N 35°22' W 010°25'23913.3
2014-Oct-26 04:33N 35°59' W 005°34'1111.3
2014-Oct-26 03:33N 36°05' W 005°23'3 1.1
2014-Oct-26 00:28N 36°08' W 005°23'0 0.1
2014-Oct-25 23:31N 36°08' W 005°23'0 0.1
2014-Oct-25 22:28N 36°08' W 005°23'0 0.2
2014-Oct-25 21:31N 36°08' W 005°23'0 0.1
2014-Oct-25 20:28N 36°08' W 005°23'0 0.0
2014-Oct-25 19:28N 36°08' W 005°23'0 0.0
2014-Oct-25 18:28N 36°08' W 005°23'0 0.1
2014-Oct-25 16:28N 36°08' W 005°23'2 2.1
2014-Oct-25 15:32N 36°06' W 005°22'2 2.0
2014-Oct-25 14:33N 36°05' W 005°21'9 9.4
2014-Oct-25 13:33N 36°06' W 005°09'18513.1
2014-Oct-24 23:29N 36°57' W 001°27'2814.4
2014-Oct-24 21:32N 37°15' W 001°01'1514.8
2014-Oct-24 20:33N 37°25' W 000°47'1414.4
2014-Oct-24 19:33N 37°34' W 000°34'1414.4
2014-Oct-24 18:33N 37°46' W 000°24'1414.3
2014-Oct-24 17:33N 37°58' W 000°14'1514.4
2014-Oct-24 16:32N 38°10' W 000°04'1414.2
2014-Oct-24 15:33N 38°22' E 000°06'1414.2
2014-Oct-24 14:33N 38°34' E 000°16'1514.6
2014-Oct-24 13:33N 38°46' E 000°27'1414.4
2014-Oct-24 12:33N 38°58' E 000°37'1414.0
2014-Oct-24 11:32N 39°09' E 000°48'4414.1
2014-Oct-24 08:24N 39°45' E 001°21'13613.8
2014-Oct-23 22:31N 41°36' E 003°07'1714.4
2014-Oct-23 21:19N 41°50' E 003°20'1514.5
2014-Oct-23 20:16N 42°04' E 003°26'1314.8
2014-Oct-23 19:25N 42°16' E 003°31'1314.4
2014-Oct-23 18:31N 42°28' E 003°37'1413.8
2014-Oct-23 17:30N 42°42' E 003°43'1413.6
2014-Oct-23 16:30N 42°55' E 003°48'1514.0
2014-Oct-23 15:27N 43°10' E 003°50'1312.8
2014-Oct-23 14:28N 43°22' E 003°47'4 3.9
2014-Oct-23 13:33N 43°24' E 003°43'0 0.0
2014-Oct-22 18:23N 43°24' E 003°43'0 0.0
2014-Oct-22 17:25N 43°24' E 003°43'0 0.0
2014-Oct-22 16:26N 43°24' E 003°43'0 0.0
2014-Oct-22 15:25N 43°24' E 003°43'0 0.0
2014-Oct-22 13:26N 43°24' E 003°43'0 0.0
2014-Oct-22 12:20N 43°24' E 003°43'0 0.0
2014-Oct-22 08:20N 43°24' E 003°43'0 0.0
2014-Oct-21 12:22N 43°24' E 003°43'0 0.0
2014-Oct-20 12:25N 43°24' E 003°43'0 0.0
2014-Oct-20 09:10N 43°24' E 003°43'0 0.0
2014-Oct-20 08:31N 43°24' E 003°43'0 0.0
2014-Oct-20 07:04N 43°24' E 003°43'0 0.0
2014-Oct-19 13:26N 43°24' E 003°43'0 0.0
2014-Oct-18 05:11N 43°24' E 003°43'0 0.0
2014-Oct-18 04:32N 43°24' E 003°43'0 0.0
2014-Oct-17 23:29N 43°24' E 003°43'0 0.0
2014-Oct-17 22:23N 43°24' E 003°43'0 0.0
2014-Oct-17 21:32N 43°24' E 003°43'0 0.0
2014-Oct-17 20:29N 43°24' E 003°43'0 0.0
2014-Oct-17 19:23N 43°24' E 003°43'0 0.0
2014-Oct-17 15:21N 43°24' E 003°43'0 0.0
2014-Oct-17 13:26N 43°24' E 003°43'0 0.0
2014-Oct-17 12:17N 43°24' E 003°43'0 0.0
2014-Oct-17 11:23N 43°24' E 003°43'  

Dump ship's entire track history